Location: Burzi?i
(45.0869°N, 16.0577°E)
Time: 11:04:59
(UTC+00:00)

FALCON 9 DEB - Pass Details

Date: 29 October 2020
Orbit: 382 x 399 km, 53.0° (Epoch: 27 November)

Event Time Altitude Azimuth Distance (km) Brightness Sun altitude
Rises 16:38:27 0° 254° (WSW) 2,319 9.1 -9.5°
Reaches altitude 10° 16:40:36 10° 262° (W) 1,460 7.5 -9.9°
Maximum altitude 16:43:44 43° 335° (NNW) 583 3.9 -10.4°
Enters shadow 16:46:28 13° 46° (NE) 1,304 5.1 -10.9°
